Simultaneous Nadir Overpasses (SNOs) Predictions

Prediction of SNOs between METOP-B and NOAA-19 Satellite Orbit:

Table of predicted SNOs for the next 14.0 days since TLE Epoch: 8/31/2018
Index Date (METOP-B) Time (METOP-B) Lat,Lon (METOP-B) SZA (METOP-B ) Date (NOAA-19) Time (NOAA-19) Lat,Lon (NOAA-19) SZA (NOAA-19 ) Distance(km) Time Diff (sec)
1 09/01/2018 16:06:06 78.74, -49.97 70.79 09/01/2018 16:04:55 78.77, -51.54 70.75 34.27 71
2 09/01/2018 16:56:50 -78.65, 116.78 109.31 09/01/2018 16:55:48 -78.62, 116.80 109.36 3.66 62
3 09/01/2018 17:47:31 78.61, -76.13 70.65 09/01/2018 17:46:52 78.63, -76.05 70.67 2.83 39
4 09/01/2018 18:38:12 -78.63, 91.33 109.31 09/01/2018 18:37:49 -78.61, 91.32 109.33 1.89 23
5 09/01/2018 19:28:52 78.63,-101.35 70.70 09/01/2018 19:28:53 78.63,-101.53 70.70 4.02 1
6 09/01/2018 20:19:34 -78.61, 65.88 109.31 09/01/2018 20:19:50 -78.61, 65.84 109.31 0.89 16
7 09/01/2018 21:10:14 78.61,-126.80 70.71 09/01/2018 21:10:53 78.59,-126.78 70.69 2.32 39
8 09/01/2018 22:00:56 -78.59, 40.43 109.31 09/01/2018 22:01:51 -78.61, 40.36 109.28 2.27 55
9 09/01/2018 22:51:41 78.39,-153.39 70.48 09/01/2018 22:52:50 78.44,-151.31 70.62 46.76 69
10 09/12/2018 13:56:36 78.67, -18.04 74.82 09/12/2018 13:55:30 78.68, -18.16 74.80 2.47 66
11 09/12/2018 14:47:18 -78.67, 149.27 105.18 09/12/2018 14:46:30 -78.66, 149.20 105.20 1.96 48
12 09/12/2018 15:37:58 78.66, -43.50 74.82 09/12/2018 15:37:30 78.64, -43.40 74.80 2.81 28
13 09/12/2018 16:28:40 -78.65, 123.81 105.17 09/12/2018 16:28:31 -78.66, 123.71 105.17 2.29 9
14 09/12/2018 17:19:20 78.64, -68.95 74.82 09/12/2018 17:19:31 78.64, -68.89 74.83 1.37 11
15 09/12/2018 18:10:02 -78.63, 98.36 105.17 09/12/2018 18:10:31 -78.62, 98.47 105.17 2.80 29
16 09/12/2018 19:00:42 78.62, -94.41 74.83 09/12/2018 19:01:32 78.64, -94.38 74.86 2.09 50
17 09/12/2018 19:51:24 -78.62, 72.90 105.17 09/12/2018 19:52:32 -78.62, 72.98 105.15 1.76 68




NCC Satellite Simultaneous Nadir Overpasses (SNOs) Prediction Service
